Weather History for KCUH - October, 2013

Change the Weather History Date:

Tuesday, October 15, 2013

  Actual Average (KTUL) Record (KTUL)
Temperature  
Mean Temperature 58 °F 62 °F  
Max Temperature 64 °F 73 °F 91 °F (1963)
Min Temperature 51 °F 51 °F 37 °F (2002)
Degree Days  
Heating Degree Days 8 5  
Month to date heating degree days 54  
Since 1 July heating degree days 78  
Cooling Degree Days 0 2  
Month to date cooling degree days 43  
Year to date cooling degree days 2008  
Growing Degree Days 8 (Base 50)    
Moisture  
Dew Point 52 °F    
Average Humidity 86    
Maximum Humidity 100    
Minimum Humidity 67    
Precipitation  
Precipitation 0.16 in 0.13 in 2.12 in (1941)
Month to date precipitation 1.87  
Year to date precipitation 33.61  
Sea Level Pressure  
Sea Level Pressure 30.04 in    
Wind  
Wind Speed 8 mph (NNW)    
Max Wind Speed 17 mph    
Max Gust Speed 21 mph    
Visibility 9 miles    
Events Rain    
T = Trace of Precipitation, MM = Missing Value Source: NWS Daily Summary

Daily Weather History Graph

Daily Weather History Graph

Search for Another Location

Airport or City:

Trip Planner

Search our weather history database for the weather conditions in past years. The results will help you decide how hot, cold, wet, or windy it might be!

Date:

Astronomy

Oct. 15, 2013 Rise Set
Actual Time 7:34 AM CDT 6:50 PM CDT
Civil Twilight 7:08 AM CDT 7:16 PM CDT
Nautical Twilight 6:38 AM CDT 7:46 PM CDT
Astronomical Twilight 6:08 AM CDT 8:16 PM CDT
Moon 4:51 PM CDT (10/15) 4:04 AM CDT (10/15)
Length of Visible Light 12h 08m
Length of Day
11h 16m
Waxing Gibbous, 88% of the Moon is Illuminated
Oct 15
Waxing Gibbous
Oct 18
Full
Oct 26
Last Quarter
Nov 3
New
Nov 9
First Quarter

Hourly Weather History & Observations

Time (CDT) Temp. Dew Point Humidity Pressure Visibility Wind Dir Wind Speed Gust Speed Precip Events Conditions
12:15 AM 64.4 °F 64.4 °F 100% 29.89 in 2.0 mi South 10.4 mph - N/A   Overcast
12:35 AM 64.4 °F 64.4 °F 100% 29.89 in 2.5 mi South 8.1 mph - N/A   Overcast
12:55 AM 64.4 °F 64.4 °F 100% 29.89 in 1.8 mi South 8.1 mph 16.1 mph N/A   Overcast
1:15 AM 64.4 °F 64.4 °F 100% 29.88 in 2.0 mi SSE 9.2 mph - N/A   Overcast
1:35 AM 64.4 °F 64.4 °F 100% 29.90 in 2.5 mi SSW 6.9 mph - N/A   Overcast
1:55 AM 64.4 °F 64.4 °F 100% 29.91 in 2.5 mi WSW 6.9 mph - 0.01 in Rain Rain
2:35 AM 62.6 °F 62.6 °F 100% 29.90 in 10.0 mi ENE 3.5 mph - 0.15 in   Mostly Cloudy
2:55 AM 62.6 °F 62.6 °F 100% 29.93 in 10.0 mi WNW 10.4 mph - 0.15 in   Scattered Clouds
3:15 AM 62.6 °F 62.6 °F 100% 29.93 in 10.0 mi Calm Calm - N/A   Scattered Clouds
3:35 AM 62.6 °F 62.6 °F 100% 29.93 in 10.0 mi NNW 6.9 mph - N/A   Mostly Cloudy
3:55 AM 60.8 °F 60.8 °F 100% 29.93 in 10.0 mi North 8.1 mph - N/A   Scattered Clouds
4:15 AM 60.8 °F 60.8 °F 100% 29.94 in 10.0 mi NNW 9.2 mph - N/A   Scattered Clouds
4:35 AM 59.0 °F 59.0 °F 100% 29.95 in 10.0 mi NNW 8.1 mph - N/A   Scattered Clouds
4:55 AM 59.0 °F 59.0 °F 100% 29.95 in 10.0 mi NNW 10.4 mph - N/A   Scattered Clouds
5:15 AM 57.2 °F 57.2 °F 100% 29.95 in 10.0 mi North 12.7 mph 16.1 mph N/A   Clear
5:35 AM 57.2 °F 57.2 °F 100% 29.96 in 10.0 mi NNW 10.4 mph - N/A   Scattered Clouds
5:55 AM 57.2 °F 57.2 °F 100% 29.98 in 10.0 mi NNW 11.5 mph - N/A   Mostly Cloudy
6:15 AM 57.2 °F 57.2 °F 100% 29.99 in 10.0 mi NNW 17.3 mph 20.7 mph N/A   Overcast
6:35 AM 55.4 °F 55.4 °F 100% 30.00 in 10.0 mi NNW 12.7 mph 19.6 mph N/A   Overcast
6:55 AM 53.6 °F 53.6 °F 100% 30.01 in 10.0 mi NNW 11.5 mph - N/A   Overcast
7:15 AM 53.6 °F 53.6 °F 100% 30.02 in 10.0 mi NNW 12.7 mph 18.4 mph N/A   Overcast
7:35 AM 51.8 °F 51.8 °F 100% 30.02 in 10.0 mi NNW 12.7 mph 19.6 mph N/A   Mostly Cloudy
7:55 AM 51.8 °F 51.8 °F 100% 30.03 in 10.0 mi North 11.5 mph 18.4 mph N/A   Scattered Clouds
8:15 AM 51.8 °F 51.8 °F 100% 30.06 in 10.0 mi NNW 8.1 mph - N/A   Scattered Clouds
8:35 AM 51.8 °F 50.0 °F 94% 30.07 in 10.0 mi NNW 11.5 mph 17.3 mph N/A   Scattered Clouds
8:55 AM 51.8 °F 50.0 °F 94% 30.07 in 10.0 mi NNW 10.4 mph 18.4 mph N/A   Clear
9:15 AM 51.8 °F 50.0 °F 94% 30.07 in 10.0 mi North 15.0 mph 20.7 mph N/A   Clear
9:35 AM 51.8 °F 50.0 °F 94% 30.08 in 10.0 mi North 10.4 mph 18.4 mph N/A   Clear
9:55 AM 51.8 °F 50.0 °F 94% 30.09 in 10.0 mi North 9.2 mph 17.3 mph N/A   Clear
10:15 AM 51.8 °F 48.2 °F 88% 30.09 in 10.0 mi North 12.7 mph 17.3 mph N/A   Clear
10:35 AM 51.8 °F 48.2 °F 88% 30.10 in 10.0 mi North 10.4 mph 17.3 mph N/A   Clear
10:55 AM 51.8 °F 48.2 °F 88% 30.10 in 10.0 mi NNW 10.4 mph - N/A   Clear
11:15 AM 53.6 °F 48.2 °F 82% 30.10 in 10.0 mi North 13.8 mph 18.4 mph N/A   Clear
11:35 AM 53.6 °F 48.2 °F 82% 30.10 in 10.0 mi NNW 8.1 mph - N/A   Clear
11:55 AM 53.6 °F 46.4 °F 77% 30.11 in 10.0 mi NNW 10.4 mph - N/A   Clear
12:15 PM 53.6 °F 46.4 °F 77% 30.11 in 10.0 mi NNW 10.4 mph - N/A   Clear
12:35 PM 53.6 °F 46.4 °F 77% 30.11 in 10.0 mi NNW 6.9 mph - N/A   Clear
12:55 PM 55.4 °F 48.2 °F 77% 30.10 in 10.0 mi NNW 9.2 mph - N/A   Clear
1:15 PM 55.4 °F 48.2 °F 77% 30.10 in 10.0 mi NNW 9.2 mph - N/A   Clear
1:35 PM 55.4 °F 48.2 °F 77% 30.08 in 10.0 mi NNW 9.2 mph - N/A   Clear
1:55 PM 57.2 °F 48.2 °F 72% 30.08 in 10.0 mi NNW 10.4 mph - N/A   Clear
2:15 PM 57.2 °F 46.4 °F 67% 30.08 in 10.0 mi NNW 9.2 mph - N/A   Clear
2:35 PM 57.2 °F 48.2 °F 72% 30.07 in 10.0 mi NNW 11.5 mph - N/A   Clear
2:55 PM 57.2 °F 48.2 °F 72% 30.06 in 10.0 mi NW 9.2 mph - N/A   Clear
3:15 PM 59.0 °F 48.2 °F 67% 30.05 in 10.0 mi NNW 9.2 mph - N/A   Clear
3:35 PM 57.2 °F 46.4 °F 67% 30.06 in 10.0 mi NNW 10.4 mph 17.3 mph N/A   Clear
3:55 PM 57.2 °F 46.4 °F 67% 30.05 in 10.0 mi North 8.1 mph - N/A   Clear
4:15 PM 57.2 °F 46.4 °F 67% 30.04 in 10.0 mi North 6.9 mph - N/A   Clear
4:35 PM 57.2 °F 48.2 °F 72% 30.05 in 10.0 mi NNW 8.1 mph - N/A   Clear
4:55 PM 57.2 °F 46.4 °F 67% 30.04 in 10.0 mi North 8.1 mph - N/A   Clear
5:15 PM 57.2 °F 46.4 °F 67% 30.05 in 10.0 mi North 8.1 mph - N/A   Clear
5:35 PM 57.2 °F 46.4 °F 67% 30.05 in 10.0 mi North 6.9 mph - N/A   Clear
5:55 PM 57.2 °F 48.2 °F 72% 30.05 in 10.0 mi North 4.6 mph - N/A   Clear
6:15 PM 55.4 °F 48.2 °F 77% 30.07 in 10.0 mi NNW 3.5 mph - N/A   Clear
6:35 PM 55.4 °F 48.2 °F 77% 30.06 in 10.0 mi NNW 4.6 mph - N/A   Clear
6:55 PM 55.4 °F 46.4 °F 72% 30.06 in 10.0 mi NNW 4.6 mph - N/A   Clear
7:15 PM 55.4 °F 46.4 °F 72% 30.07 in 10.0 mi NNW 4.6 mph - N/A   Clear
7:55 PM 53.6 °F 46.4 °F 77% 30.08 in 10.0 mi Calm Calm - N/A   Scattered Clouds
8:15 PM 53.6 °F 48.2 °F 82% 30.09 in 10.0 mi Calm Calm - N/A   Clear
8:35 PM 53.6 °F 48.2 °F 82% 30.10 in 10.0 mi Calm Calm - N/A   Scattered Clouds
8:55 PM 53.6 °F 48.2 °F 82% 30.10 in 10.0 mi NNW 3.5 mph - N/A   Scattered Clouds
9:15 PM 53.6 °F 48.2 °F 82% 30.11 in 10.0 mi NNW 3.5 mph - N/A   Scattered Clouds
9:35 PM 53.6 °F 48.2 °F 82% 30.11 in 10.0 mi Calm Calm - N/A   Scattered Clouds
9:55 PM 51.8 °F 46.4 °F 82% 30.11 in 10.0 mi NNW 3.5 mph - N/A   Scattered Clouds
10:15 PM 51.8 °F 46.4 °F 82% 30.11 in 10.0 mi NNW 3.5 mph - N/A   Clear
10:35 PM 51.8 °F 46.4 °F 82% 30.12 in 10.0 mi NNW 3.5 mph - N/A   Clear
10:55 PM 51.8 °F 46.4 °F 82% 30.12 in 10.0 mi NNW 4.6 mph - N/A   Clear
11:15 PM 51.8 °F 46.4 °F 82% 30.12 in 10.0 mi NNW 3.5 mph - N/A   Clear
11:35 PM 51.8 °F 46.4 °F 82% 30.12 in 10.0 mi North 3.5 mph - N/A   Clear
11:55 PM 51.8 °F 46.4 °F 82% 30.12 in 10.0 mi North 4.6 mph - N/A   Clear